CSN115 EGCC-EIDW

Flight info

Callsign CSN115
Flight time 0h 37m
Altitude 22000
Route ASMIM1S ASMIM L975 WAL L10 PENIL L28 LELDO M145 BAGSO BAGSO2K
Aircraft B77W/H-SDE1E2E3FGHIJ2J3J4J5M1RWXY/LB1D1

Departure

Time 2026-05-04 08:00
Airport Manchester Airport (EGCC)

Arrival

Time 2026-05-04 08:37
Airport Dublin Airport (EIDW)
Time Latitude Longitude Altitude Speed Heading
2026-05-04 07:50 53.35789 -2.27516 267 ft 0 kts 52°
2026-05-04 07:52 53.35783 -2.27528 267 ft 2 kts 49°
2026-05-04 07:52 53.35773 -2.27548 267 ft 2 kts 50°
2026-05-04 07:52 53.35763 -2.27567 267 ft 2 kts 50°
2026-05-04 07:53 53.35753 -2.27586 267 ft 2 kts 50°
2026-05-04 07:54 53.35747 -2.27652 267 ft 0 kts 162°
2026-05-04 07:56 53.35720 -2.27637 267 ft 7 kts 161°
2026-05-04 07:56 53.35650 -2.27632 267 ft 11 kts 202°
2026-05-04 07:56 53.35585 -2.27717 267 ft 12 kts 223°
2026-05-04 07:56 53.35507 -2.27844 267 ft 19 kts 226°
2026-05-04 07:57 53.35396 -2.28017 267 ft 23 kts 223°
2026-05-04 07:57 53.35281 -2.28210 266 ft 23 kts 230°
2026-05-04 07:57 53.35200 -2.28377 267 ft 15 kts 226°
2026-05-04 07:57 53.35130 -2.28514 267 ft 15 kts 231°
2026-05-04 07:58 53.35058 -2.28666 267 ft 17 kts 231°
2026-05-04 07:58 53.34969 -2.28830 267 ft 20 kts 222°
2026-05-04 07:58 53.34849 -2.29011 267 ft 25 kts 224°
2026-05-04 07:58 53.34689 -2.28999 267 ft 25 kts 122°
2026-05-04 07:59 53.34742 -2.28803 267 ft 15 kts 51°
2026-05-04 07:59 53.34774 -2.28737 267 ft 0 kts 50°
2026-05-04 07:59 53.34886 -2.28509 267 ft 79 kts 51°
2026-05-04 08:00 53.35501 -2.27249 289 ft 195 kts 50°
2026-05-04 08:00 53.36435 -2.25375 1507 ft 226 kts 52°
2026-05-04 08:00 53.37322 -2.23489 3399 ft 210 kts 51°
2026-05-04 08:02 53.44755 -2.26961 4967 ft 252 kts 257°
2026-05-04 08:02 53.44305 -2.29803 4968 ft 252 kts 265°
2026-05-04 08:02 53.44528 -2.32802 4981 ft 273 kts 291°
2026-05-04 08:03 53.45354 -2.35983 4992 ft 318 kts 296°
2026-05-04 08:03 53.46336 -2.39466 4981 ft 342 kts 294°
2026-05-04 08:03 53.46867 -2.43396 4978 ft 350 kts 275°
2026-05-04 08:03 53.46666 -2.47447 4984 ft 353 kts 262°
2026-05-04 08:04 53.46197 -2.51490 4987 ft 353 kts 260°
2026-05-04 08:04 53.45720 -2.55515 4987 ft 354 kts 260°
2026-05-04 08:04 53.45250 -2.59607 4983 ft 354 kts 261°
2026-05-04 08:04 53.44803 -2.63575 4983 ft 338 kts 261°
2026-05-04 08:05 53.44367 -2.67482 5107 ft 359 kts 260°
2026-05-04 08:05 53.43909 -2.71607 6657 ft 367 kts 260°
2026-05-04 08:05 53.43453 -2.75704 8491 ft 363 kts 260°
2026-05-04 08:05 53.42995 -2.79818 9821 ft 372 kts 260°
2026-05-04 08:06 53.42511 -2.84157 11012 ft 384 kts 260°
2026-05-04 08:06 53.42023 -2.88513 12268 ft 392 kts 260°
2026-05-04 08:06 53.41512 -2.93057 13525 ft 400 kts 260°
2026-05-04 08:06 53.40997 -2.97613 14707 ft 409 kts 260°
2026-05-04 08:08 53.46190 -3.30277 21871 ft 461 kts 308°
2026-05-04 08:08 53.48087 -3.34622 22038 ft 465 kts 308°
2026-05-04 08:10 53.62514 -3.70278 22043 ft 465 kts 295°
2026-05-04 08:11 53.63731 -3.75258 22045 ft 464 kts 294°
2026-05-04 08:11 53.66141 -3.85319 22046 ft 465 kts 294°
2026-05-04 08:11 53.67343 -3.90355 22047 ft 464 kts 294°
2026-05-04 08:12 53.68542 -3.95396 22049 ft 464 kts 294°
2026-05-04 08:12 53.69747 -4.00473 22045 ft 464 kts 294°
2026-05-04 08:12 53.70902 -4.05546 22046 ft 465 kts 290°
2026-05-04 08:12 53.71646 -4.10857 22045 ft 468 kts 281°
2026-05-04 08:13 53.71960 -4.16338 22047 ft 471 kts 276°
2026-05-04 08:13 53.72173 -4.21834 22049 ft 470 kts 276°
2026-05-04 08:13 53.72378 -4.27325 22049 ft 471 kts 276°
2026-05-04 08:13 53.72578 -4.32780 22048 ft 470 kts 276°
2026-05-04 08:14 53.72780 -4.38306 22047 ft 470 kts 276°
2026-05-04 08:14 53.72980 -4.43856 22052 ft 470 kts 276°
2026-05-04 08:14 53.73174 -4.49304 22049 ft 472 kts 276°
2026-05-04 08:16 53.74477 -4.87795 21265 ft 457 kts 275°
2026-05-04 08:16 53.74649 -4.93088 20761 ft 447 kts 275°
2026-05-04 08:16 53.74814 -4.98251 20261 ft 438 kts 275°
2026-05-04 08:17 53.74974 -5.03305 19764 ft 430 kts 275°
2026-05-04 08:17 53.75131 -5.08315 19258 ft 422 kts 275°
2026-05-04 08:17 53.75044 -5.13198 18754 ft 416 kts 265°
2026-05-04 08:17 53.74451 -5.17946 18249 ft 411 kts 255°
2026-05-04 08:19 53.68342 -5.48312 14780 ft 377 kts 253°
2026-05-04 08:19 53.67653 -5.52571 14276 ft 372 kts 259°
2026-05-04 08:20 53.67101 -5.56802 13778 ft 369 kts 259°
2026-05-04 08:20 53.66560 -5.60971 13286 ft 366 kts 259°
2026-05-04 08:20 53.66019 -5.65123 12793 ft 363 kts 258°
2026-05-04 08:20 53.65477 -5.69257 12296 ft 361 kts 259°
2026-05-04 08:21 53.64939 -5.73351 11791 ft 358 kts 258°
2026-05-04 08:21 53.64394 -5.77477 11284 ft 356 kts 258°
2026-05-04 08:21 53.63857 -5.81527 10783 ft 354 kts 259°
2026-05-04 08:21 53.63324 -5.85540 10287 ft 351 kts 259°
2026-05-04 08:22 53.62797 -5.89490 10029 ft 347 kts 259°
2026-05-04 08:22 53.62264 -5.93485 10013 ft 348 kts 259°
2026-05-04 08:24 53.58491 -6.21397 9532 ft 346 kts 259°
2026-05-04 08:24 53.57968 -6.25227 9289 ft 344 kts 259°
2026-05-04 08:24 53.57438 -6.29159 9033 ft 343 kts 261°
2026-05-04 08:24 53.57382 -6.33091 8775 ft 333 kts 281°
2026-05-04 08:25 53.58143 -6.36702 8510 ft 318 kts 303°
2026-05-04 08:25 53.59557 -6.39499 8258 ft 309 kts 320°
2026-05-04 08:25 53.61268 -6.41657 8017 ft 304 kts 328°
2026-05-04 08:25 53.63054 -6.43506 7763 ft 302 kts 331°
2026-05-04 08:26 53.64706 -6.45676 7502 ft 302 kts 313°
2026-05-04 08:27 53.61035 -6.64219 3184 ft 335 kts 190°
2026-05-04 08:28 53.58810 -6.64934 2971 ft 317 kts 193°
2026-05-04 08:28 53.56739 -6.65742 2980 ft 292 kts 194°
2026-05-04 08:28 53.54836 -6.66558 2984 ft 273 kts 192°
2026-05-04 08:28 53.52985 -6.67030 3008 ft 262 kts 186°
2026-05-04 08:29 53.51217 -6.67312 2989 ft 249 kts 184°
2026-05-04 08:29 53.49504 -6.67569 2987 ft 244 kts 183°
2026-05-04 08:29 53.47850 -6.67199 2977 ft 238 kts 154°
2026-05-04 08:31 53.45141 -6.54662 2987 ft 144 kts 89°
2026-05-04 08:33 53.44529 -6.43042 2055 ft 140 kts 90°
2026-05-04 08:33 53.44442 -6.41418 1870 ft 140 kts 90°
2026-05-04 08:35 53.43830 -6.30126 520 ft 141 kts 94°
2026-05-04 08:35 53.43736 -6.28463 438 ft 142 kts 92°
2026-05-04 08:35 53.43661 -6.26904 235 ft 121 kts 93°
2026-05-04 08:35 53.43595 -6.25736 220 ft 82 kts 96°
2026-05-04 08:37 53.43380 -6.25034 213 ft 16 kts 275°
2026-05-04 08:37 53.43390 -6.25225 214 ft 16 kts 275°
2026-05-04 08:37 53.43401 -6.25406 217 ft 14 kts 276°
2026-05-04 08:38 53.43406 -6.25492 217 ft 0 kts 275°
2026-05-04 08:38 53.43407 -6.25517 217 ft 6 kts 275°
2026-05-04 08:40 53.42797 -6.24957 214 ft 7 kts 85°
2026-05-04 08:40 53.42799 -6.24922 215 ft 1 kts 86°
2026-05-04 08:40 53.42799 -6.24908 215 ft 0 kts 85°